Time,TemperatureF,DewpointF,PressureIn,WindDirection,WindDirectionDegrees,WindSpeedMPH,WindSpeedGustMPH,Humidity,HourlyPrecipIn,Conditions,Clouds,dailyrainin,SolarRadiationWatts/m^2,SoftwareType,DateUTC
2013-02-05 00:08:00,35.8,35.0,29.95,SSE,159,0.0,1.0,96,0.00,,,0.00,0,weatherlink.com 1.10,2013-02-05 06:08:00,
2013-02-05 00:23:00,35.6,35.0,29.95,SSE,159,0.0,1.0,96,0.00,,,0.00,0,weatherlink.com 1.10,2013-02-05 06:23:00,
2013-02-05 00:38:00,35.2,34.0,29.96,SSE,159,0.0,0.0,96,0.00,,,0.00,0,weatherlink.com 1.10,2013-02-05 06:38:00,
2013-02-05 00:53:00,34.9,34.0,29.95,SSE,159,0.0,0.0,96,0.00,,,0.00,0,weatherlink.com 1.10,2013-02-05 06:53:00,
2013-02-05 01:08:00,34.7,34.0,29.96,SSE,159,0.0,1.0,96,0.00,,,0.00,0,weatherlink.com 1.10,2013-02-05 07:08:00,
2013-02-05 01:23:00,34.3,33.0,29.97,SSE,159,0.0,0.0,96,0.01,,,0.01,0,weatherlink.com 1.10,2013-02-05 07:23:00,
2013-02-05 01:38:00,33.8,33.0,29.97,SSE,159,0.0,0.0,96,0.01,,,0.01,0,weatherlink.com 1.10,2013-02-05 07:38:00,
2013-02-05 01:53:00,33.4,32.0,29.97,SSE,159,0.0,0.0,96,0.01,,,0.01,0,weatherlink.com 1.10,2013-02-05 07:53:00,
2013-02-05 02:08:00,33.2,32.0,29.96,SSE,159,0.0,0.0,96,0.01,,,0.01,0,weatherlink.com 1.10,2013-02-05 08:08:00,
2013-02-05 02:23:00,32.9,32.0,29.96,SSE,159,0.0,0.0,96,0.00,,,0.01,0,weatherlink.com 1.10,2013-02-05 08:23:00,
2013-02-05 02:38:00,32.7,32.0,29.95,SSE,159,0.0,0.0,96,0.00,,,0.01,0,weatherlink.com 1.10,2013-02-05 08:38:00,
2013-02-05 02:53:00,32.4,31.0,29.95,SSE,159,0.0,0.0,96,0.00,,,0.01,0,weatherlink.com 1.10,2013-02-05 08:53:00,
2013-02-05 03:08:00,32.6,32.0,29.96,SSE,159,0.0,0.0,97,0.00,,,0.01,0,weatherlink.com 1.10,2013-02-05 09:08:00,
2013-02-05 03:23:00,32.6,32.0,29.96,SSE,159,0.0,0.0,97,0.00,,,0.01,0,weatherlink.com 1.10,2013-02-05 09:23:00,
2013-02-05 03:38:00,32.2,31.0,29.96,SSE,159,0.0,2.0,96,0.00,,,0.01,0,weatherlink.com 1.10,2013-02-05 09:38:00,
2013-02-05 03:53:00,31.9,31.0,29.96,SSE,159,0.0,0.0,96,0.00,,,0.01,0,weatherlink.com 1.10,2013-02-05 09:53:00,
2013-02-05 04:08:00,31.6,31.0,29.96,SSE,159,0.0,0.0,96,0.00,,,0.01,0,weatherlink.com 1.10,2013-02-05 10:08:00,
2013-02-05 04:23:00,31.6,31.0,29.96,SSE,159,0.0,0.0,97,0.00,,,0.01,0,weatherlink.com 1.10,2013-02-05 10:23:00,
2013-02-05 04:38:00,31.5,31.0,29.97,SSE,159,1.0,2.0,97,0.00,,,0.01,0,weatherlink.com 1.10,2013-02-05 10:38:00,
2013-02-05 04:53:00,31.4,31.0,29.97,SSE,159,0.0,2.0,97,0.00,,,0.01,0,weatherlink.com 1.10,2013-02-05 10:53:00,
2013-02-05 05:09:00,31.3,31.0,29.98,SSE,159,0.0,1.0,97,0.00,,,0.01,0,weatherlink.com 1.10,2013-02-05 11:09:00,
2013-02-05 05:23:00,31.3,31.0,29.98,SSE,159,0.0,0.0,97,0.00,,,0.01,0,weatherlink.com 1.10,2013-02-05 11:23:00,
2013-02-05 05:38:00,31.2,31.0,29.98,SSE,159,0.0,1.0,97,0.00,,,0.01,0,weatherlink.com 1.10,2013-02-05 11:38:00,
2013-02-05 05:53:00,31.0,30.0,29.98,SSE,159,0.0,0.0,97,0.00,,,0.01,0,weatherlink.com 1.10,2013-02-05 11:53:00,
2013-02-05 06:08:00,30.8,30.0,29.99,SSE,159,0.0,1.0,97,0.00,,,0.01,0,weatherlink.com 1.10,2013-02-05 12:08:00,
2013-02-05 06:23:00,30.8,30.0,30.00,SSE,159,0.0,1.0,97,0.00,,,0.01,0,weatherlink.com 1.10,2013-02-05 12:23:00,
2013-02-05 06:38:00,30.8,30.0,30.00,SSE,159,0.0,0.0,97,0.00,,,0.01,0,weatherlink.com 1.10,2013-02-05 12:38:00,
2013-02-05 06:53:00,30.7,30.0,30.01,SSE,159,0.0,0.0,97,0.00,,,0.01,0,weatherlink.com 1.10,2013-02-05 12:53:00,
2013-02-05 07:08:00,30.6,30.0,30.01,SSE,159,0.0,1.0,97,0.00,,,0.01,0,weatherlink.com 1.10,2013-02-05 13:08:00,
2013-02-05 07:24:00,30.6,30.0,30.01,SSE,159,0.0,1.0,97,0.00,,,0.01,11,weatherlink.com 1.10,2013-02-05 13:24:00,
2013-02-05 07:39:00,30.2,29.0,30.02,SSE,159,0.0,1.0,96,0.00,,,0.01,21,weatherlink.com 1.10,2013-02-05 13:39:00,
2013-02-05 07:54:00,30.3,30.0,30.02,SSE,159,0.0,1.0,97,0.00,,,0.01,33,weatherlink.com 1.10,2013-02-05 13:54:00,
2013-02-05 08:09:00,30.6,30.0,30.03,SSE,159,0.0,1.0,97,0.00,,,0.01,76,weatherlink.com 1.10,2013-02-05 14:09:00,
2013-02-05 08:24:00,31.2,31.0,30.03,SSE,159,0.0,0.0,97,0.00,,,0.01,90,weatherlink.com 1.10,2013-02-05 14:24:00,
2013-02-05 08:39:00,31.5,31.0,30.04,SSE,159,0.0,1.0,97,0.00,,,0.01,84,weatherlink.com 1.10,2013-02-05 14:39:00,
2013-02-05 08:54:00,31.7,31.0,30.03,SSE,159,0.0,1.0,97,0.00,,,0.01,105,weatherlink.com 1.10,2013-02-05 14:54:00,
2013-02-05 09:09:00,32.4,32.0,30.04,SSE,159,0.0,1.0,97,0.00,,,0.01,144,weatherlink.com 1.10,2013-02-05 15:09:00,
2013-02-05 09:24:00,33.0,32.0,30.04,SSE,159,0.0,1.0,97,0.00,,,0.01,144,weatherlink.com 1.10,2013-02-05 15:24:00,
2013-02-05 09:39:00,34.2,34.0,30.04,SSE,159,0.0,1.0,97,0.00,,,0.01,183,weatherlink.com 1.10,2013-02-05 15:39:00,
2013-02-05 09:54:00,34.9,34.0,30.04,SSE,159,0.0,2.0,98,0.00,,,0.01,199,weatherlink.com 1.10,2013-02-05 15:54:00,
2013-02-05 10:09:00,35.7,35.0,30.04,SSE,159,0.0,1.0,98,0.00,,,0.01,318,weatherlink.com 1.10,2013-02-05 16:09:00,
2013-02-05 10:24:00,37.5,37.0,30.04,SSE,159,0.0,1.0,98,0.00,,,0.01,519,weatherlink.com 1.10,2013-02-05 16:24:00,
2013-02-05 10:39:00,39.1,39.0,30.04,SSE,159,0.0,1.0,98,0.00,,,0.01,427,weatherlink.com 1.10,2013-02-05 16:39:00,
2013-02-05 10:54:00,41.3,41.0,30.04,SSE,159,0.0,1.0,98,0.00,,,0.01,522,weatherlink.com 1.10,2013-02-05 16:54:00,
2013-02-05 11:09:00,43.6,43.0,30.04,SSE,159,1.0,1.0,98,0.00,,,0.01,598,weatherlink.com 1.10,2013-02-05 17:09:00,
2013-02-05 11:24:00,45.3,45.0,30.04,SSE,159,0.0,1.0,98,0.00,,,0.01,608,weatherlink.com 1.10,2013-02-05 17:24:00,
2013-02-05 11:39:00,47.8,47.0,30.03,SSE,159,0.0,1.0,96,0.00,,,0.01,608,weatherlink.com 1.10,2013-02-05 17:39:00,
2013-02-05 11:54:00,51.2,48.0,30.02,SSE,159,0.0,2.0,88,0.00,,,0.01,663,weatherlink.com 1.10,2013-02-05 17:54:00,
2013-02-05 12:11:00,54.1,47.0,30.01,SSE,159,0.0,2.0,78,0.00,,,0.01,654,weatherlink.com 1.10,2013-02-05 18:11:00,
2013-02-05 12:25:00,55.8,46.0,30.00,SSE,159,1.0,2.0,70,0.00,,,0.01,626,weatherlink.com 1.10,2013-02-05 18:25:00,
2013-02-05 12:40:00,58.5,45.0,29.99,South,173,0.0,4.0,62,0.00,,,0.01,536,weatherlink.com 1.10,2013-02-05 18:40:00,
2013-02-05 12:55:00,60.1,45.0,29.98,SSE,167,0.0,4.0,58,0.00,,,0.01,531,weatherlink.com 1.10,2013-02-05 18:55:00,
2013-02-05 13:10:00,61.5,45.0,29.98,NNW,342,1.0,3.0,56,0.00,,,0.01,49,weatherlink.com 1.10,2013-02-05 19:10:00,
2013-02-05 13:25:00,62.0,44.0,29.96,West,271,2.0,4.0,53,0.00,,,0.01,534,weatherlink.com 1.10,2013-02-05 19:25:00,
2013-02-05 13:40:00,63.2,44.0,29.96,NW,317,0.0,3.0,50,0.00,,,0.01,441,weatherlink.com 1.10,2013-02-05 19:40:00,
2013-02-05 13:55:00,64.2,44.0,29.96,NNW,327,1.0,4.0,49,0.00,,,0.01,51,weatherlink.com 1.10,2013-02-05 19:55:00,
2013-02-05 14:10:00,64.5,46.0,29.95,North,351,2.0,4.0,51,0.00,,,0.01,216,weatherlink.com 1.10,2013-02-05 20:10:00,
2013-02-05 14:25:00,65.4,46.0,29.95,North,351,0.0,2.0,49,0.00,,,0.01,478,weatherlink.com 1.10,2013-02-05 20:25:00,
2013-02-05 14:40:00,66.1,45.0,29.95,North,351,0.0,3.0,46,0.00,,,0.01,144,weatherlink.com 1.10,2013-02-05 20:40:00,
2013-02-05 14:55:00,67.0,45.0,29.95,North,351,0.0,3.0,45,0.00,,,0.01,234,weatherlink.com 1.10,2013-02-05 20:55:00,
2013-02-05 15:10:00,67.8,44.0,29.95,North,351,0.0,2.0,43,0.00,,,0.01,396,weatherlink.com 1.10,2013-02-05 21:10:00,
2013-02-05 15:25:00,68.4,44.0,29.95,North,355,0.0,3.0,42,0.00,,,0.01,264,weatherlink.com 1.10,2013-02-05 21:25:00,
2013-02-05 15:40:00,68.2,43.0,29.95,NNE,15,0.0,5.0,40,0.00,,,0.01,336,weatherlink.com 1.10,2013-02-05 21:40:00,
2013-02-05 15:55:00,68.5,43.0,29.95,NNE,13,1.0,4.0,40,0.00,,,0.01,294,weatherlink.com 1.10,2013-02-05 21:55:00,
2013-02-05 16:10:00,67.0,40.0,29.95,NNE,13,2.0,6.0,37,0.00,,,0.01,243,weatherlink.com 1.10,2013-02-05 22:10:00,
2013-02-05 16:25:00,66.6,38.0,29.96,North,5,2.0,6.0,35,0.00,,,0.01,183,weatherlink.com 1.10,2013-02-05 22:25:00,
2013-02-05 16:40:00,66.6,37.0,29.96,NNW,346,2.0,6.0,34,0.00,,,0.01,127,weatherlink.com 1.10,2013-02-05 22:40:00,
2013-02-05 16:55:00,66.1,37.0,29.96,NNW,344,6.0,10.0,34,0.00,,,0.01,70,weatherlink.com 1.10,2013-02-05 22:55:00,
2013-02-05 17:10:00,65.6,36.0,29.96,NNW,341,4.0,10.0,33,0.00,,,0.01,37,weatherlink.com 1.10,2013-02-05 23:10:00,
2013-02-05 17:25:00,64.7,36.0,29.96,North,5,3.0,7.0,34,0.00,,,0.01,19,weatherlink.com 1.10,2013-02-05 23:25:00,
2013-02-05 17:40:00,62.9,36.0,29.97,North,355,2.0,7.0,37,0.00,,,0.01,5,weatherlink.com 1.10,2013-02-05 23:40:00,
2013-02-05 17:55:00,62.5,36.0,29.98,North,350,2.0,6.0,37,0.00,,,0.01,0,weatherlink.com 1.10,2013-02-05 23:55:00,
2013-02-05 18:10:00,61.0,37.0,29.98,North,350,0.0,3.0,41,0.00,,,0.01,0,weatherlink.com 1.10,2013-02-06 00:10:00,
2013-02-05 18:25:00,59.8,37.0,29.99,North,350,0.0,1.0,43,0.00,,,0.01,0,weatherlink.com 1.10,2013-02-06 00:25:00,
2013-02-05 18:40:00,58.1,37.0,30.00,North,350,0.0,0.0,45,0.00,,,0.01,0,weatherlink.com 1.10,2013-02-06 00:40:00,
2013-02-05 18:55:00,56.7,36.0,30.00,North,350,0.0,0.0,47,0.00,,,0.01,0,weatherlink.com 1.10,2013-02-06 00:55:00,
2013-02-05 19:10:00,54.6,38.0,30.01,North,350,0.0,1.0,53,0.00,,,0.01,0,weatherlink.com 1.10,2013-02-06 01:10:00,
2013-02-05 19:25:00,52.9,37.0,30.02,North,350,0.0,1.0,55,0.00,,,0.01,0,weatherlink.com 1.10,2013-02-06 01:25:00,
2013-02-05 19:40:00,51.7,37.0,30.03,North,350,1.0,2.0,58,0.00,,,0.01,0,weatherlink.com 1.10,2013-02-06 01:40:00,
2013-02-05 19:55:00,50.5,37.0,30.03,North,350,1.0,2.0,61,0.00,,,0.01,0,weatherlink.com 1.10,2013-02-06 01:55:00,
2013-02-05 20:10:00,48.4,39.0,30.04,North,350,1.0,3.0,70,0.00,,,0.01,0,weatherlink.com 1.10,2013-02-06 02:10:00,
2013-02-05 20:25:00,47.9,39.0,30.04,North,350,1.0,2.0,70,0.00,,,0.01,0,weatherlink.com 1.10,2013-02-06 02:25:00,
2013-02-05 20:40:00,47.4,39.0,30.05,North,350,1.0,2.0,72,0.00,,,0.01,0,weatherlink.com 1.10,2013-02-06 02:40:00,
2013-02-05 20:55:00,45.8,39.0,30.05,ESE,109,0.0,3.0,78,0.00,,,0.01,0,weatherlink.com 1.10,2013-02-06 02:55:00,
2013-02-05 21:10:00,44.4,39.0,30.05,SE,126,0.0,2.0,81,0.00,,,0.01,0,weatherlink.com 1.10,2013-02-06 03:10:00,
2013-02-05 21:25:00,43.4,38.0,30.05,SE,126,0.0,1.0,81,0.00,,,0.01,0,weatherlink.com 1.10,2013-02-06 03:25:00,
2013-02-05 21:40:00,42.7,38.0,30.06,SE,126,0.0,0.0,83,0.00,,,0.01,0,weatherlink.com 1.10,2013-02-06 03:40:00,
2013-02-05 21:55:00,42.1,38.0,30.07,SE,126,0.0,0.0,84,0.00,,,0.01,0,weatherlink.com 1.10,2013-02-06 03:55:00,
2013-02-05 22:10:00,41.4,38.0,30.07,SE,126,0.0,0.0,86,0.00,,,0.01,0,weatherlink.com 1.10,2013-02-06 04:10:00,
2013-02-05 22:25:00,40.7,37.0,30.07,SE,126,0.0,0.0,86,0.00,,,0.01,0,weatherlink.com 1.10,2013-02-06 04:25:00,
2013-02-05 22:40:00,40.0,37.0,30.08,SE,126,0.0,0.0,87,0.00,,,0.01,0,weatherlink.com 1.10,2013-02-06 04:40:00,
2013-02-05 22:55:00,39.4,36.0,30.08,SE,126,0.0,0.0,88,0.00,,,0.01,0,weatherlink.com 1.10,2013-02-06 04:55:00,
2013-02-05 23:11:00,38.9,36.0,30.09,SE,126,0.0,0.0,90,0.00,,,0.01,0,weatherlink.com 1.10,2013-02-06 05:11:00,
2013-02-05 23:26:00,38.5,36.0,30.09,SE,126,0.0,1.0,91,0.00,,,0.01,0,weatherlink.com 1.10,2013-02-06 05:26:00,
2013-02-05 23:41:00,38.1,36.0,30.10,SE,126,0.0,2.0,91,0.00,,,0.01,0,weatherlink.com 1.10,2013-02-06 05:41:00,
2013-02-05 23:55:00,37.5,35.0,30.10,SE,126,0.0,1.0,91,0.00,,,0.01,0,weatherlink.com 1.10,2013-02-06 05:55:00,